Weather History for Escanaba, MI

Change the Weather History Date:

Saturday, September 15, 2012

  Actual Average Record
Temperature  
Mean Temperature 50 °F -  
Max Temperature 64 °F 64 °F 78 °F (1991)
Min Temperature 35 °F 48 °F 32 °F (2007)
Degree Days  
Heating Degree Days 16    
Moisture  
Dew Point 46 °F    
Average Humidity 77    
Maximum Humidity 100    
Minimum Humidity 52    
Precipitation  
Precipitation 0.00 in - - ()
Sea Level Pressure  
Sea Level Pressure 30.24 in    
Wind  
Wind Speed 5 mph (SSE)    
Max Wind Speed 13 mph    
Max Gust Speed 18 mph    
Visibility 10 miles    
Events      
Averages and records for this station are not official NWS values.
T = Trace of Precipitation, MM = Missing Value Source: NWS Daily Summary

Daily Weather History Graph

Daily Weather History Graph

Search for Another Location

Airport:

Trip Planner

Search our weather history database for the weather conditions in past years. The results will help you decide how hot, cold, wet, or windy it might be!

Date:

Astronomy

Sep. 15, 2012 Rise Set
Actual Time 7:27 AM EDT 7:58 PM EDT
Civil Twilight 6:57 AM EDT 8:28 PM EDT
Nautical Twilight 6:22 AM EDT 9:03 PM EDT
Astronomical Twilight 5:45 AM EDT 9:40 PM EDT
Moon 6:59 AM EDT (9/15) 7:25 PM EDT (9/15)
Length of Visible Light 13h 31m
Length of Day
12h 31m
Waning Crescent, 0% of the Moon is Illuminated
Sep 15
Waning Crescent
Sep 15
New
Sep 22
First Quarter
Sep 29
Full
Oct 8
Last Quarter

Hourly Weather History & Observations

Time (EDT) Temp. Windchill Dew Point Humidity Pressure Visibility Wind Dir Wind Speed Gust Speed Precip Events Conditions
12:35 AM 44.6 °F 43.1 °F 42.8 °F 93% 30.32 in 10.0 mi NW 3.5 mph - N/A   Clear
12:55 AM 44.6 °F - 39.2 °F 81% 30.32 in 10.0 mi Calm Calm - N/A   Clear
1:15 AM 42.8 °F 40.1 °F 41.0 °F 93% 30.32 in 10.0 mi NW 4.6 mph - N/A   Clear
1:35 AM 42.8 °F 39.3 °F 39.2 °F 87% 30.32 in 10.0 mi NW 5.8 mph - N/A   Clear
2:15 AM 42.8 °F 40.1 °F 39.2 °F 87% 30.32 in 10.0 mi WNW 4.6 mph - N/A   Clear
2:35 AM 41.0 °F - 39.2 °F 93% 30.32 in 10.0 mi Calm Calm - N/A   Clear
2:55 AM 42.8 °F - 39.2 °F 87% 30.32 in 10.0 mi Calm Calm - N/A   Clear
3:15 AM 41.0 °F 38.0 °F 37.4 °F 87% 30.31 in 8.0 mi WNW 4.6 mph - N/A   Clear
3:35 AM 42.8 °F 39.3 °F 41.0 °F 93% 30.31 in 10.0 mi WNW 5.8 mph - N/A   Clear
3:55 AM 39.2 °F 35.9 °F 37.4 °F 93% 30.31 in 10.0 mi WNW 4.6 mph - N/A   Clear
4:15 AM 41.0 °F 39.0 °F 39.2 °F 93% 30.31 in 10.0 mi WNW 3.5 mph - N/A   Clear
4:35 AM 39.2 °F 35.0 °F 37.4 °F 93% 30.31 in 9.0 mi WNW 5.8 mph - N/A   Clear
4:55 AM 39.2 °F 35.0 °F 35.6 °F 87% 30.31 in 8.0 mi NW 5.8 mph - N/A   Clear
5:15 AM 37.4 °F 32.8 °F 35.6 °F 93% 30.32 in 10.0 mi NW 5.8 mph - N/A   Clear
5:35 AM 39.2 °F - 37.4 °F 93% 30.32 in 10.0 mi Calm Calm - N/A   Clear
5:55 AM 37.4 °F 34.9 °F 37.4 °F 100% 30.32 in 2.5 mi NW 3.5 mph - N/A   Clear
6:15 AM 37.4 °F - 37.4 °F 100% 30.31 in 9.0 mi Calm Calm - N/A   Clear
6:35 AM 35.6 °F - 35.6 °F 100% 30.32 in 7.0 mi Calm Calm - N/A   Clear
6:55 AM 37.4 °F - 35.6 °F 93% 30.32 in 4.0 mi Calm Calm - N/A   Clear
7:15 AM 37.4 °F - 35.6 °F 93% 30.32 in 7.0 mi Calm Calm - N/A   Clear
7:35 AM 35.6 °F - 35.6 °F 100% 30.33 in 7.0 mi Calm Calm - N/A   Clear
7:55 AM 37.4 °F - 35.6 °F 93% 30.33 in 10.0 mi Calm Calm - N/A   Clear
8:15 AM 39.2 °F - 37.4 °F 93% 30.34 in 10.0 mi Calm Calm - N/A   Clear
8:35 AM 41.0 °F - 39.2 °F 93% 30.34 in 10.0 mi Calm Calm - N/A   Clear
8:55 AM 44.6 °F - 41.0 °F 87% 30.34 in 10.0 mi Calm Calm - N/A   Clear
9:15 AM 46.4 °F - 42.8 °F 87% 30.34 in 10.0 mi Calm Calm - N/A   Clear
9:35 AM 50.0 °F - 44.6 °F 82% 30.33 in 10.0 mi Calm Calm - N/A   Clear
9:55 AM 53.6 °F - 46.4 °F 77% 30.33 in 10.0 mi Calm Calm - N/A   Clear
10:15 AM 55.4 °F - 46.4 °F 72% 30.32 in 10.0 mi NNE 3.5 mph - N/A   Clear
10:35 AM 55.4 °F - 44.6 °F 67% 30.32 in 10.0 mi ENE 4.6 mph - N/A   Clear
10:55 AM 57.2 °F - 46.4 °F 67% 30.31 in 10.0 mi ENE 4.6 mph - N/A   Clear
11:15 AM 59.0 °F - 46.4 °F 63% 30.30 in 10.0 mi East 4.6 mph - N/A   Clear
11:35 AM 59.0 °F - 44.6 °F 59% 30.30 in 10.0 mi ESE 5.8 mph - N/A   Clear
11:55 AM 60.8 °F - 44.6 °F 55% 30.29 in 10.0 mi SSE 8.1 mph - N/A   Clear
12:15 PM 60.8 °F - 44.6 °F 55% 30.29 in 10.0 mi SE 8.1 mph - N/A   Clear
12:35 PM 60.8 °F - 46.4 °F 59% 30.28 in 10.0 mi SSE 10.4 mph - N/A   Clear
12:55 PM 62.6 °F - 44.6 °F 52% 30.27 in 10.0 mi SSE 9.2 mph - N/A   Clear
1:15 PM 62.6 °F - 46.4 °F 55% 30.26 in 10.0 mi SE 8.1 mph - N/A   Clear
1:35 PM 60.8 °F - 46.4 °F 59% 30.25 in 10.0 mi SE 9.2 mph - N/A   Clear
1:55 PM 62.6 °F - 44.6 °F 52% 30.25 in 10.0 mi SSE 10.4 mph - N/A   Clear
2:15 PM 62.6 °F - 46.4 °F 55% 30.24 in 10.0 mi South 8.1 mph - N/A   Clear
2:55 PM 62.6 °F - 48.2 °F 59% 30.22 in 10.0 mi South 10.4 mph - N/A   Clear
3:15 PM 62.6 °F - 48.2 °F 59% 30.20 in 10.0 mi SE 12.7 mph - N/A   Clear
3:35 PM 64.4 °F - 50.0 °F 59% 30.20 in 10.0 mi South 12.7 mph 17.3 mph N/A   Clear
3:55 PM 64.4 °F - 50.0 °F 59% 30.19 in 10.0 mi SE 11.5 mph - N/A   Clear
4:15 PM 64.4 °F - 51.8 °F 64% 30.18 in 10.0 mi SSE 12.7 mph - N/A   Clear
4:35 PM 64.4 °F - 51.8 °F 64% 30.18 in 10.0 mi SE 12.7 mph 18.4 mph N/A   Clear
4:55 PM 64.4 °F - 51.8 °F 64% 30.17 in 10.0 mi SSE 12.7 mph - N/A   Clear
5:15 PM 64.4 °F - 51.8 °F 64% 30.16 in 10.0 mi SE 12.7 mph - N/A   Clear
5:35 PM 62.6 °F - 51.8 °F 68% 30.16 in 10.0 mi SE 10.4 mph - N/A   Clear
5:55 PM 62.6 °F - 51.8 °F 68% 30.15 in 10.0 mi SSE 11.5 mph - N/A   Clear
6:15 PM 62.6 °F - 51.8 °F 68% 30.14 in 10.0 mi SE 11.5 mph - N/A   Clear
6:35 PM 62.6 °F - 51.8 °F 68% 30.14 in 10.0 mi SE 10.4 mph - N/A   Clear
6:55 PM 62.6 °F - 51.8 °F 68% 30.13 in 10.0 mi SE 10.4 mph - N/A   Clear
7:15 PM 62.6 °F - 51.8 °F 68% 30.13 in 10.0 mi SE 11.5 mph - N/A   Clear
7:35 PM 60.8 °F - 53.6 °F 77% 30.12 in 10.0 mi SE 9.2 mph - N/A   Clear
7:55 PM 60.8 °F - 53.6 °F 77% 30.11 in 10.0 mi SSE 11.5 mph 17.3 mph N/A   Clear
8:15 PM 60.8 °F - 53.6 °F 77% 30.11 in 10.0 mi SE 9.2 mph - N/A   Clear
8:35 PM 60.8 °F - 53.6 °F 77% 30.11 in 10.0 mi SE 8.1 mph - N/A   Clear
8:55 PM 60.8 °F - 53.6 °F 77% 30.10 in 10.0 mi SE 9.2 mph - N/A   Clear
9:15 PM 60.8 °F - 53.6 °F 77% 30.10 in 10.0 mi SE 9.2 mph - N/A   Clear
9:35 PM 60.8 °F - 53.6 °F 77% 30.10 in 10.0 mi SE 9.2 mph - N/A   Clear
9:55 PM 60.8 °F - 53.6 °F 77% 30.09 in 10.0 mi SE 10.4 mph - N/A   Clear
10:15 PM 60.8 °F - 53.6 °F 77% 30.08 in 10.0 mi SE 8.1 mph - N/A   Clear
10:35 PM 62.6 °F - 55.4 °F 77% 30.08 in 10.0 mi SE 6.9 mph - N/A   Clear
10:55 PM 62.6 °F - 55.4 °F 77% 30.07 in 10.0 mi SSE 6.9 mph - N/A   Clear
11:15 PM 62.6 °F - 55.4 °F 77% 30.07 in 10.0 mi SSE 5.8 mph - N/A   Clear
11:35 PM 62.6 °F - 55.4 °F 77% 30.06 in 10.0 mi South 6.9 mph - N/A   Clear
11:55 PM 62.6 °F - 55.4 °F 77% 30.05 in 10.0 mi South 6.9 mph - N/A   Clear